Terminal Aerodrome Forecast
Issued by NWS Sterling, VA

Current Version | Previous Version | Graphics & Text | Print | Product List | Glossary On
Versions: 1 2 3 4 5 6 7 8 9 10 11 12 13 14 15 16 17 18 19
000
FTUS41 KLWX 221120
TAFMRB
TAF
KMRB 221120Z 2212/2312 34005KT 2SM -RA BR OVC003
     FM221600 35007KT 3SM -RA OVC010
     FM230100 34004KT 3SM -SHRA BR OVC025
     FM230400 33004KT 3SM BR OVC020=

USA.gov is the U.S. government's official web portal to all federal, state and local government web resources and services.